星链-34029 (STARLINK-34029)

导读

STARLINK-34029是美国SpaceX公司星链(Starlink)星座的一颗低轨互联网卫星,于2025年5月4日发射入轨。星链项目旨在通过构建近地轨道卫星群,为全球尤其是偏远欠发达区域提供高速、低延迟的宽带互联网接入服务,这颗卫星加入后,进一步扩充了星链星座的服务覆盖能力与网络稳定性,助力全球卫星互联网服务组网。

Basic Information
目录编号:
63805
目录名称:
STARLINK-34029
国际标识:
2025-092B
轨道中心:
EARTH
卫星名称:
星链-34029
卫星全名:
星链-34029 (STARLINK-34029)
卫星状态:
在轨 (已飞行488 天)
发射日期:
2025-05-04 UTC
国别 :
美国 (US)
星等 :
--
Orbit Information
数据来源 国际轨道数据 AOE轨道数据
星历时间 2026-09-04T16:17:49+0800
14小时前
查看轨道信息
2026-09-04T11:00:00+0800
19小时前
查看轨道信息
半长轴 6861.163km 6861.208km
偏心率 0.0001213 0.0001582
轨道倾角 42.998° 43.000°
近地点辐角 282.970° 287.337°
升交点赤经 243.948° 245.201°
平近点角 77.101° 297.604°
近地点 482.193km 481.985km
远地点 483.859km 484.157km
周期 94.266分钟 94.267分钟
每日圈数 15.275879 15.275729
Detailed Information
固有亮度:
5
最大亮度:
2.5
卫星平台:
Starlink V1.0
覆盖范围:
全球
运营商:
太空探索技术公司
运营商所在国:
美国
制造商(研发单位):
太空探索技术公司
制造商所在国:
美国
使用方式:
暂无
Satellite Introduction
Starlink 计划是 SpaceX 推出的全球卫星互联网项目,通过发射低轨道卫星,为全球尤其是偏远地区提供高速、低延迟的互联网服务。自 2019 年起,Starlink 已部署数千颗卫星,旨在缩小全球数字鸿沟,推动互联网普及。该项目还为军事、航空等行业提供通信支持,带来广泛经济效益。
2D Orbit Map
3D Orbit Map
Orbit Altitude Analysis Chart
Orbit Inclination Analysis Chart
Orbit Comprehensive Analysis Chart
View Comprehensive Chart
Conjunction Data List
Event ID Objects TCA Miss Dist (km) Collision Risk Probability Collision Risk Index (CRI) Action
CDM_260907-014705-773206-380521
2026-09-07T
01:47:10+0000
0.094 km
近距离
8.305872E-4 高风险 0.93
CDM_260907-014406-380506-387521
2026-09-07T
01:44:35+0000
0.973 km
远距离
2.181897E-5 中风险 0.62
CDM_260829-023906-380506-384021
2026-08-29T
02:39:16+0000
1.252 km
极远距离
7.843438E-6 低风险 0.53
CDM_260907-040506-380506-387521
2026-09-07T
04:05:53+0000
1.935 km
极远距离
2.35085E-6 低风险 0.42
CDM_260831-110406-380506-539521
2026-08-31T
11:04:33+0000
2.143 km
极远距离
2.344135E-6 低风险 0.42
CDM_260905-231506-380506-453122
OBJECT D (64531)
2026-09-05T
23:15:06+0000
2.252 km
极远距离
2.027994E-6 低风险 0.41
CDM_260907-001305-773206-380521
2026-09-07T
00:13:01+0000
2.189 km
极远距离
6.225308E-7 极低风险 0.31